Bartlesville, OK

10:32 AM CDT on June 27, 2017 (GMT -0500)
Bartlesville Municipal

Weather History for KBVO - September, 2012

Change the Weather History Date:

Sunday, September 16, 2012

  Actual Average Record
Temperature  
Mean Temperature 68 °F -  
Max Temperature 75 °F 83 °F 102 °F (1956)
Min Temperature 60 °F 60 °F 40 °F (1993)
Cooling Degree Days 2    
Growing Degree Days 18 (Base 50)    
Moisture  
Dew Point 64 °F    
Average Humidity 90    
Maximum Humidity 100    
Minimum Humidity 66    
Precipitation  
Precipitation 0.00 in - - ()
Sea Level Pressure  
Sea Level Pressure 30.04 in    
Wind  
Wind Speed 1 mph (SSW)    
Max Wind Speed 6 mph    
Max Gust Speed -    
Visibility 8 miles    
Events Rain    
Averages and records for this station are not official NWS values.
T = Trace of Precipitation, MM = Missing Value Source: NWS Daily Summary

Daily Weather History Graph

Daily Weather History Graph

Search for Another Location

Airport or City:

Trip Planner

Search our weather history database for the weather conditions in past years. The results will help you decide how hot, cold, wet, or windy it might be!

Date:

Astronomy

Sep. 16, 2012 Rise Set
Actual Time 7:07 AM CDT 7:29 PM CDT
Civil Twilight 6:41 AM CDT 7:55 PM CDT
Nautical Twilight 6:11 AM CDT 8:25 PM CDT
Astronomical Twilight 5:40 AM CDT 8:56 PM CDT
Moon 7:45 AM CDT (9/16) 7:38 PM CDT (9/16)
Length of Visible Light 13h 13m
Length of Day
12h 21m
New Moon, 0% of the Moon is Illuminated
Sep 16
New Moon
Sep 22
First Quarter
Sep 29
Full
Oct 8
Last Quarter
Oct 15
New

Hourly Weather History & Observations

Time (CDT) Temp. Dew Point Humidity Pressure Visibility Wind Dir Wind Speed Gust Speed Precip Events Conditions
12:20 AM 64.4 °F 64.4 °F 100% 30.11 in 5.0 mi Calm Calm - N/A   Overcast
12:30 AM 64.4 °F 64.4 °F 100% 30.11 in 5.0 mi Calm Calm - N/A   Overcast
12:53 AM 64.9 °F 64.9 °F 100% 30.08 in 6.0 mi Calm Calm - N/A   Overcast
1:51 AM 66.2 °F 66.2 °F 100% 30.10 in 6.0 mi Calm Calm - N/A   Overcast
1:53 AM 66.0 °F 66.0 °F 100% 30.08 in 6.0 mi Calm Calm - N/A   Overcast
2:53 AM 66.0 °F 66.0 °F 100% 30.07 in 5.0 mi Calm Calm - N/A   Overcast
3:53 AM 66.0 °F 66.0 °F 100% 30.06 in 4.0 mi Calm Calm - N/A   Overcast
4:53 AM 64.9 °F 64.9 °F 100% 30.05 in 4.0 mi Calm Calm - N/A   Overcast
5:53 AM 64.9 °F 64.9 °F 100% 30.05 in 5.0 mi Calm Calm - N/A   Overcast
6:53 AM 64.9 °F 64.9 °F 100% 30.04 in 5.0 mi Calm Calm - N/A   Overcast
7:30 AM 66.2 °F 64.4 °F 94% 30.07 in 6.0 mi Calm Calm - N/A   Overcast
7:53 AM 66.0 °F 64.9 °F 96% 30.06 in 6.0 mi Calm Calm - N/A   Overcast
8:13 AM 66.2 °F 64.4 °F 94% 30.07 in 6.0 mi Calm Calm - N/A   Overcast
8:49 AM 66.2 °F 66.2 °F 100% 30.08 in 8.0 mi Calm Calm - N/A   Overcast
8:53 AM 66.9 °F 66.0 °F 97% 30.06 in 8.0 mi Calm Calm - N/A   Overcast
9:19 AM 68.0 °F 66.2 °F 94% 30.08 in 10.0 mi South 3.5 mph - N/A   Overcast
9:53 AM 68.0 °F 66.0 °F 93% 30.06 in 10.0 mi SSW 3.5 mph - N/A   Overcast
10:48 AM 69.8 °F 64.4 °F 83% 30.08 in 10.0 mi Calm Calm - N/A   Overcast
10:53 AM 70.0 °F 64.9 °F 84% 30.06 in 10.0 mi Calm Calm - N/A   Overcast
11:00 AM 69.8 °F 64.4 °F 83% 30.08 in 10.0 mi Calm Calm - N/A   Overcast
11:53 AM 70.0 °F 64.9 °F 84% 30.06 in 10.0 mi Calm Calm - N/A   Overcast
12:53 PM 72.0 °F 64.9 °F 78% 30.04 in 10.0 mi SSW 3.5 mph - N/A   Overcast
1:26 PM 71.6 °F 64.4 °F 78% 30.05 in 10.0 mi Calm Calm - N/A   Overcast
1:41 PM 69.8 °F 64.4 °F 83% 30.05 in 10.0 mi SW 4.6 mph - N/A   Overcast
1:53 PM 69.1 °F 64.9 °F 87% 30.03 in 6.0 mi SW 4.6 mph - 0.00 in Rain Light Rain
2:32 PM 69.8 °F 64.4 °F 83% 30.03 in 10.0 mi Calm Calm - 0.00 in   Overcast
2:53 PM 72.0 °F 64.0 °F 76% 30.01 in 10.0 mi SSW 4.6 mph - 0.00 in   Overcast
3:53 PM 75.0 °F 63.0 °F 66% 29.98 in 10.0 mi Variable 4.6 mph - N/A   Overcast
4:01 PM 73.4 °F 62.6 °F 69% 30.00 in 10.0 mi South 5.8 mph - N/A   Overcast
4:53 PM 73.9 °F 64.0 °F 71% 29.97 in 10.0 mi SSW 4.6 mph - N/A   Overcast
5:53 PM 73.0 °F 62.1 °F 68% 29.96 in 10.0 mi SSW 3.5 mph - N/A   Overcast
6:53 PM 71.1 °F 64.0 °F 78% 29.96 in 10.0 mi Calm Calm - N/A   Overcast
7:53 PM 68.0 °F 64.9 °F 90% 29.95 in 10.0 mi Calm Calm - N/A   Mostly Cloudy
8:53 PM 64.9 °F 63.0 °F 93% 29.96 in 10.0 mi Calm Calm - N/A   Clear
9:53 PM 61.0 °F 61.0 °F 100% 29.97 in 5.0 mi Calm Calm - N/A   Clear
10:46 PM 60.8 °F 60.8 °F 100% 29.99 in 1.8 mi Calm Calm - N/A   Clear
10:53 PM 61.0 °F 61.0 °F 100% 29.97 in 1.8 mi Calm Calm - N/A   Clear
10:55 PM 60.8 °F 60.8 °F 100% 29.99 in 4.0 mi Calm Calm - N/A   Clear
11:53 PM 61.0 °F 60.1 °F 97% 29.96 in 8.0 mi Calm Calm - N/A   Clear